Hourly Data Report for December 08, 2020

L'ASSOMPTION
QUEBEC
Current Station Operator: ECCC - MSC

45°48'34.000" N
73°26'05.000" W
21.00 m
7014160
71524
WEW

Download Data

Hourly Data (December 2020)
Hourly Data Report for December 8, 2020
TIME
LST
Temp Definition
°C
Dew Point Definition
°C
Rel Hum Definition
%
Precip. Amount Definition
mm

Wind Dir Definition
10's deg

Wind Spd Definition
km/h
Visibility Definition
km
Stn Press Definition
kPa
Hmdx Definition


Wind Chill Definition


Weather Definition


00:00 -4.4 -8.3 74 0.0 33 10   100.86   -9 LegendNANA
01:00 -3.9 -9.0 68 0.0 34 13   100.83   -9 LegendNANA
02:00 -3.9 -8.9 68 0.0 35 11   100.83   -8 LegendNANA
03:00 -3.9 -8.6 70 0.0 34 12   100.82   -9 LegendNANA
04:00 -4.4 -8.6 73 0.0 33 11   100.79   -9 LegendNANA
05:00 -4.6 -8.8 72 0.0 33 14   100.81   -10 LegendNANA
06:00 -4.7 -9.0 72 0.0 33 15   100.85   -10 LegendNANA
07:00 -4.8 -9.1 72 0.0 33 12   100.87   -10 LegendNANA
08:00 -4.8 -9.2 71 0.0 33 10   100.91   -9 LegendNANA
09:00 -4.7 -9.5 69 0.0 34 13   100.92   -10 LegendNANA
10:00 -4.0 -9.1 67 0.0 32 12   100.91   -9 LegendNANA
11:00 -4.1 -9.9 64 0.0 31 10   100.84   -8 LegendNANA
12:00 -4.0 -10.0 63 0.0 32 8   100.77   -7 LegendNANA
13:00 -3.5 -10.1 60 0.0 29 1   100.70   -4 LegendNANA
14:00 -3.1 -9.3 62 0.0 30 8   100.68   -6 LegendNANA
15:00 -3.0 -8.8 64 0.0 24 4   100.69   -5 LegendNANA
16:00 -3.2 -8.0 69 0.0 22 12   100.68   -8 LegendNANA
17:00 -3.9 -8.0 73 0.0 22 14   100.74   -9 LegendNANA
18:00 -4.0 -7.7 76 0.0 23 14   100.76   -9 LegendNANA
19:00 -4.3 -7.8 77 0.0 24 16   100.81   -10 LegendNANA
20:00 -4.5 -7.8 78 0.0 24 15   100.79   -10 LegendNANA
21:00 -4.7 -8.1 77 0.0 24 15   100.73   -10 LegendNANA
22:00 -5.4 -8.6 79 0.0 21 15   100.65   -11 LegendNANA
23:00 -5.3 -9.6 72 0.0 22 15   100.65   -11 LegendNANA

Notes on Data Quality.

Legend

  • E = Estimated
  • M = Missing
  • NA = Not Available*
  • [empty] = Indicates an unobserved value
Date modified: